Regional Weather Roundup
Issued by NWS San Angelo, TX

Home | Current Version | Previous Version | Text Only | Print | Product List | Glossary On
Versions: 1 2 3 4 5 6 7 8 9 10 11 12 13 14 15 16 17 18 19 20 21 22 23 24 25 26 27 28 29 30 31 32 33 34 35 36 37 38 39 40 41 42 43 44 45 46 47 48 49 50
000
ASUS44 KSJT 231202
RWRSJT
WEST CENTRAL TEXAS REGIONAL WEATHER ROUNDUP
NATIONAL WEATHER SERVICE SAN ANGELO TX
700 AM CDT SAT AUG 23 2014

NOTE: "FAIR" INDICATES FEW OR NO CLOUDS BELOW 12,000 FEET WITH NO
SIGNIFICANT WEATHER AND/OR OBSTRUCTIONS TO VISIBILITY.

TXZ049-054-064>066-071>073-076>078-098-099-113-114-127-128-139-140-
154-155-168>170-231300
...LOCATIONS ACROSS WEST CENTRAL TEXAS...

CITY           SKY/WX    TMP DP  RH WIND       PRES   REMARKS
SAN ANGELO     MOCLDY    75  64  68 S9        30.02S
ABILENE        PTCLDY    74  60  61 SE6       30.02S
DYESS AFB      PTCLDY    75  63  64 S13       30.00S
JUNCTION       CLEAR     70  64  81 SE3       30.03S
SWEETWATER     MOCLDY    75  61  60 S10       30.06R
BROWNWOOD      PTCLDY    72  59  64 S3        30.02R
COLEMAN        SUNNY     71  57  63 CALM      30.03S
SONORA         PTCLDY    72  64  78 S5        30.09R
OZONA          FAIR      72  63  73 S8        30.06F
BRADY          CLEAR     72  61  68 SE6       30.03S
$$

TEXAS PANHANDLE/OKLAHOMA PANHANDLE

CITY           SKY/WX    TMP DP  RH WIND       PRES   REMARKS
AMARILLO       CLOUDY    72  59  63 SW18      30.01S
BORGER         CLOUDY    74  59  59 SW13      29.98S
CANADIAN       CLEAR     69  61  76 SW5       29.95S
DALHART        MOCLDY    68  59  73 SW14      30.01S
DUMAS          CLOUDY    69  60  72 SW18      30.01R
GUYMON         NOT AVBL
HEREFORD       CLOUDY    69  63  80 SW7       30.04F
PAMPA          PTSUNNY   68  58  70 SW12      30.01S
PERRYTON       PTCLDY    68  59  73 S9        29.95S
$$

SOUTHERN PANHANDLE/SOUTH PLAINS/ROLLING PLAINS

CITY           SKY/WX    TMP DP  RH WIND       PRES   REMARKS
LUBBOCK        CLOUDY    71  53  52 S9        30.04R
SNYDER         MOCLDY    72  58  60 S7        30.03F
CHILDRESS      PTCLDY    71  53  52 S9        29.98S
SEMINOLE       CLOUDY    71  62  72 S3        30.06R
$$

PERMIAN BASIN

CITY           SKY/WX    TMP DP  RH WIND       PRES   REMARKS
MIDLAND        MOCLDY    72  50  45 S9        30.03R
ODESSA         MOCLDY    76  49  38 S9        30.04R
WINK           CLOUDY    73  69  87 E3        30.00S
$$

FAR WEST/SOUTHWEST MOUNTAINS/TRANS PECOS

CITY           SKY/WX    TMP DP  RH WIND       PRES   REMARKS
ALPINE         CLOUDY    65  59  80 CALM      30.17S
DRYDEN           N/A     74  53  48 N7        30.00R
EL PASO        MOCLDY    67  61  81 SE8       30.08R
FORT STOCKTON  CLOUDY    74  48  39 S7        30.04R
GUADALUPE PASS PTCLDY    63  59  87 SW12      30.17S
MARFA          MOCLDY    64  61  88 W3        30.17R
PECOS          NOT AVBL
$$

DALLAS/FORT WORTH METROPLEX

CITY           SKY/WX    TMP DP  RH WIND       PRES   REMARKS
DFW AIRPORT    CLEAR     79  67  66 S8        29.98R
FTW MEACHAM    CLEAR     79  64  60 S8        29.98S
DAL-EXECUTIVE  CLEAR     79  68  69 VRB5      29.99R
GRAND PRAIRIE  NOT AVBL
ADDISON        NOT AVBL
MESQUITE       SUNNY     73  70  88 SE3       30.00R
LANCASTER      SUNNY     74  68  80 CALM      30.00S
$$

NORTH CENTRAL TEXAS

CITY           SKY/WX    TMP DP  RH WIND       PRES   REMARKS
SHRMAN/DENISON SUNNY     77  67  69 S9        30.00R
GAINESVILLE    CLEAR     73  66  80 SE5       30.00S
BRIDGEPORT     SUNNY     75  60  57 S3        30.00S
DENTON         CLEAR     75  66  73 CALM      29.98R
WAXAHACHIE     SUNNY     74  67  79 S6        30.01S
GRANBURY       SUNNY     77  60  56 CALM      30.01R
$$

WESTERN NORTH TEXAS

CITY           SKY/WX    TMP DP  RH WIND       PRES   REMARKS
WICHITA FALLS  CLEAR     72  59  63 S12       29.95R
VERNON         SUNNY     73  51  45 S8        29.97R
BRECKENRIDGE   SUNNY     77  57  50 S8        30.00R HAZE
COMANCHE       CLEAR     73  59  62 S6        30.02R
$$

CENTRAL AND SOUTH CENTRAL TEXAS

CITY           SKY/WX    TMP DP  RH WIND       PRES   REMARKS
AUSTIN/BERGSTM PTCLDY    71  70  96 S3        30.02R
WACO           CLEAR     75  71  87 S9        30.01R
HILLSBORO      SUNNY     75  68  78 S6        30.01S
TEMPLE         CLEAR     73  66  78 S6        30.02R
KILLEEN-GRAY   NOT AVBL
FORT HOOD      CLEAR     75  70  84 SE3       30.03R
GEORGETOWN     PTCLDY    75  72  88 S6        30.03
LAGO VISTA     PTSUNNY   74  71  88 S5        30.04S
SAN MARCOS     MOCLDY    75  70  83 S3        30.04R
NEW BRAUNFELS  MOCLDY    74  72  93 SW3       30.01R
RANDOLPH AFB   MOCLDY    77  73  86 S3        30.02S
SAN ANTONIO    MOCLDY    78  73  84 S9        30.02S
STINSON        CLOUDY    77  74  90 SE3       30.00R
PLEASANTON     NOT AVBL
LA GRANGE        N/A     74  74  99 CALM      29.99F FOG
GIDDINGS       NOT AVBL
$$

EAST TEXAS

CITY           SKY/WX    TMP DP  RH WIND       PRES   REMARKS
PARIS          CLEAR     72  64  78 S6        30.01S
CLARKSVILLE    CLOUDY    73  72  94 CALM      30.01S
TYLER          CLEAR     75  71  87 S6        30.02R
LONGVIEW       CLEAR     72  69  90 SE3       30.02R FOG
PALESTINE      SUNNY     73  73  99 CALM      30.04R
NACOGDOCHES    CLEAR     70  66  88 CALM      30.04R
$$

TEXAS HILL COUNTRY AND EDWARDS PLATEAU

CITY           SKY/WX    TMP DP  RH WIND       PRES   REMARKS
LLANO          SUNNY     70  64  83 CALM      30.06R
HORSESHOE BAY  FAIR      69  69  99 CALM      30.03R
KERRVILLE      MOCLDY    72  69  92 E5        30.06R
FREDERICKSBRG  CLEAR     67  64  90 CALM      30.06R
ROCKSPRINGS    NOT AVBL
HONDO          PTCLDY    69  68  96 N5        30.03S
UVALDE         SUNNY     70  68  92 E6        30.02R
DEL RIO        PTCLDY    77  67  71 E8        29.97S
$$

SOUTHEAST TEXAS

CITY           SKY/WX    TMP DP  RH WIND       PRES   REMARKS
COLLEGE STN    CLEAR     74  72  93 S3        30.02S
CALDWELL       NOT AVBL
CROCKETT       NOT AVBL
BRENHAM        PTCLDY    74  73  97 CALM      30.03R FOG
HUNTSVILLE     CLEAR     76  73  91 SW5       30.03R
CONROE         CLEAR     70  69  97 CALM      30.03R
HOUSTON BUSH   PTCLDY    75  74  96 CALM      30.01R
HOUSTON HOBBY  PTCLDY    77  74  90 CALM      30.01R
PERLAND        CLEAR     76  72  87 CALM      30.02R
WHARTON        PTSUNNY   73  72  97 CALM      30.02R FOG
$$

THE UPPER TEXAS COAST

CITY           SKY/WX    TMP DP  RH WIND       PRES   REMARKS
ORANGE           N/A     75  75 100 CALM      30.04R FOG
PORT ARTHUR    CLEAR     75  74  96 CALM      30.01S
GALVESTON      PTCLDY    83  76  79 S8        30.01S
ANGLETON       CLEAR     73  73 100 CALM      30.00S
BAY CITY       SUNNY     77  77 100 CALM      30.00S
$$

TEXAS COASTAL BEND, RIO GRANDE PLAINS DEEP SOUTH TEXAS

CITY           SKY/WX    TMP DP  RH WIND       PRES   REMARKS
VICTORIA       CLEAR     76  74  93 NE5       30.00S
BEEVILLE       PTSUNNY   73  73 100 CALM      29.99S
ROCKPORT       PTCLDY    81  77  88 S3        29.98S
PORT ARANSAS   SUNNY     79  77  94 CALM      29.97S
PORT LAVACA    MOSUNNY   77  76  96 CALM      29.99S FOG
CORPUS CHRISTI PTCLDY    75  73  93 SE6       29.97S
KINGSVILLE NAS CLEAR     74  74 100 E3        29.97S
COTULLA        CLEAR     74  70  87 SE5       29.98S
LAREDO         CLEAR     78  73  84 SE9       29.98S
BROWNSVILLE    PTCLDY    78  76  93 SE5       29.95S
PORT ISABEL    PTCLDY    80  75  84 SE3       29.95S
HEBBRONVILLE   NOT AVBL
MCALLEN        CLEAR     78  75  90 E5        29.95S
WESLACO        PTCLDY    79  74  84 CALM      29.95S
FALFURRIAS     SUNNY     66  64  93 E3        29.96S
EDINBURG       MOSUNNY   77  74  88 SE3       29.96S
$$



USA.gov is the U.S. government's official web portal to all federal, state and local government web resources and services.